Location: Bergnershof
(48.9468°N, 10.9431°E)
Time: 23:35:48
(UTC+00:00)

Cosmos 2218 Rocket - Pass Details

Date: 03 March 2021
Orbit: 955 x 1007 km, 82.9° (Epoch: 12 April)

Event Time Altitude Azimuth Distance (km) Brightness Sun altitude
Rises 18:48:08 0° 175° (S) 3,721 6.9 -18.0°
Reaches altitude 10° 18:50:41 10° 172° (S) 2,777 6.2 -18.4°
Maximum altitude 18:56:58 63° 94° (E) 1,121 4.0 -19.4°
Drops below altitude 10° 19:03:17 10° 15° (NNE) 2,787 6.4 -20.4°
Sets 19:05:50 0° 12° (NNE) 3,737 7.1 -20.8°
